Volver al catálogo

HUBBLE 7

ActivoCienciaSSO
NORAD 64592·PAYLOAD·🇺🇸 United States

Lanzado Jun 23, 2025 desde Vandenberg Space Force Base

Loading…

Próximos Pases (próximas 24 horas)

TLE

ActualizadoSource: Space-Track

Época: Sep 14, 2026, 14:05 UTC

1 64592U 25135BS  26257.58708578  .00001408  00000-0  13844-3 0  9998
2 64592  97.7825  11.3520 0003953  64.7895 295.3734 14.93724878 67253

Sigue HUBBLE 7 en tiempo real con AllMySat

Download on the App Store